| time (UTC) | temp C | wind direction | speed KPH | gust KPH | rain 1hr cm | rain 24hr cm | rain mn cm | humidity % | barometer mb |
| 20260905193825 | 27 | 340 | 11.3 | 22.5 | 0.00 | 0.00 | 0.00 | 74 | 1010.9 |
| 20260905193315 | 27 | 27 | 8.0 | 22.5 | 0.00 | 0.00 | 0.00 | 74 | 1010.9 |
| 20260905192815 | 27 | 67 | 6.4 | 16.1 | 0.00 | 0.00 | 0.00 | 75 | 1011.0 |
| 20260905192315 | 27 | 47 | 8.0 | 20.9 | 0.00 | 0.00 | 0.00 | 74 | 1011.0 |
| 20260905191815 | 27 | 38 | 8.0 | 20.9 | 0.00 | 0.00 | 0.00 | 74 | 1011.0 |
| 20260905191546 | 27 | 88 | 8.0 | 20.9 | 0.00 | 0.00 | 0.00 | 75 | 1011.1 |
| 20260905191043 | 27 | 51 | 9.7 | 17.7 | 0.00 | 0.00 | 0.00 | 74 | 1011.1 |
| 20260905190536 | 28 | 78 | 8.0 | 16.1 | 0.00 | 0.00 | 0.00 | 74 | 1011.1 |
| 20260905185816 | 28 | 57 | 8.0 | 16.1 | 0.00 | 0.00 | 0.00 | 74 | 1011.1 |
| 20260905185317 | 28 | 333 | 8.0 | 19.3 | 0.00 | 0.00 | 0.00 | 73 | 1011.1 |
| 20260905184810 | 28 | 49 | 8.0 | 19.3 | 0.00 | 0.00 | 0.00 | 72 | 1011.1 |
| 20260905184525 | 28 | 49 | 8.0 | 14.5 | 0.00 | 0.00 | 0.00 | 73 | 1011.1 |
| 20260905183754 | 28 | 65 | 9.7 | 17.7 | 0.00 | 0.00 | 0.00 | 72 | 1011.1 |
| 20260905183243 | 28 | 11 | 8.0 | 20.9 | 0.00 | 0.00 | 0.00 | 72 | 1011.1 |
| 20260905182743 | 28 | 56 | 8.0 | 20.9 | 0.00 | 0.00 | 0.00 | 72 | 1011.0 |
| 20260905182235 | 28 | 17 | 8.0 | 19.3 | 0.00 | 0.00 | 0.00 | 73 | 1011.0 |
| 20260905181730 | 28 | 56 | 8.0 | 19.3 | 0.00 | 0.00 | 0.00 | 72 | 1011.0 |
| 20260905181225 | 28 | 5 | 8.0 | 19.3 | 0.00 | 0.00 | 0.00 | 72 | 1010.9 |
| 20260905180718 | 28 | 44 | 9.7 | 24.1 | 0.00 | 0.00 | 0.00 | 71 | 1010.9 |
| 20260905180212 | 29 | 46 | 9.7 | 24.1 | 0.00 | 0.00 | 0.00 | 71 | 1010.9 |
| 20260905175934 | 29 | 82 | 9.7 | 19.3 | 0.00 | 0.00 | 0.00 | 72 | 1010.9 |
| 20260905175425 | 29 | 44 | 8.0 | 20.9 | 0.00 | 0.00 | 0.00 | 71 | 1010.9 |
| 20260905174654 | 29 | 86 | 6.4 | 20.9 | 0.00 | 0.00 | 0.00 | 71 | 1010.9 |
| 20260905174411 | 29 | 48 | 8.0 | 20.9 | 0.00 | 0.00 | 0.00 | 72 | 1010.9 |
| 20260905173641 | 29 | 49 | 9.7 | 20.9 | 0.00 | 0.00 | 0.00 | 71 | 1010.9 |
| 20260905173131 | 29 | 346 | 9.7 | 24.1 | 0.00 | 0.00 | 0.00 | 72 | 1010.9 |
| 20260905172853 | 29 | 85 | 8.0 | 24.1 | 0.00 | 0.00 | 0.00 | 72 | 1011.0 |
| 20260905172124 | 29 | 63 | 9.7 | 25.7 | 0.00 | 0.00 | 0.00 | 71 | 1011.0 |
| 20260905171617 | 29 | 355 | 9.7 | 25.7 | 0.00 | 0.00 | 0.00 | 71 | 1011.0 |
| 20260905171328 | 29 | 73 | 8.0 | 19.3 | 0.00 | 0.00 | 0.00 | 73 | 1011.1 |
| 20260905171056 | 29 | 5 | 8.0 | 14.5 | 0.00 | 0.00 | 0.00 | 71 | 1011.1 |
| 20260905170059 | 29 | 16 | 8.0 | 16.1 | 0.00 | 0.00 | 0.00 | 72 | 1011.1 |
| 20260905165549 | 28 | 24 | 8.0 | 17.7 | 0.00 | 0.00 | 0.00 | 73 | 1011.2 |
| 20260905165047 | 28 | 64 | 8.0 | 25.7 | 0.00 | 0.00 | 0.00 | 73 | 1011.2 |
| 20260905164759 | 28 | 32 | 9.7 | 25.7 | 0.00 | 0.00 | 0.00 | 72 | 1011.2 |
| 20260905164304 | 28 | 74 | 8.0 | 19.3 | 0.00 | 0.00 | 0.00 | 73 | 1011.3 |
| 20260905163541 | 28 | 54 | 8.0 | 17.7 | 0.00 | 0.00 | 0.00 | 73 | 1011.3 |
| 20260905163044 | 28 | 42 | 8.0 | 17.7 | 0.00 | 0.00 | 0.00 | 73 | 1011.3 |
| 20260905162540 | 28 | 87 | 8.0 | 17.7 | 0.00 | 0.00 | 0.00 | 72 | 1011.3 |
| 20260905162306 | 28 | 31 | 8.0 | 16.1 | 0.00 | 0.00 | 0.00 | 73 | 1011.3 |
| 20260905161541 | 28 | 355 | 8.0 | 16.1 | 0.00 | 0.00 | 0.00 | 75 | 1011.3 |
| 20260905161041 | 28 | 36 | 9.7 | 20.9 | 0.00 | 0.00 | 0.00 | 75 | 1011.2 |
| 20260905160542 | 28 | 17 | 9.7 | 22.5 | 0.00 | 0.00 | 0.00 | 75 | 1011.2 |
| 20260905160304 | 28 | 58 | 8.0 | 22.5 | 0.00 | 0.00 | 0.00 | 76 | 1011.2 |
| 20260905155542 | 27 | 36 | 8.0 | 19.3 | 0.00 | 0.00 | 0.00 | 76 | 1011.1 |
| 20260905155039 | 27 | 57 | 6.4 | 17.7 | 0.00 | 0.00 | 0.00 | 77 | 1011.1 |
| 20260905154539 | 27 | 37 | 8.0 | 17.7 | 0.00 | 0.00 | 0.00 | 79 | 1011.1 |
| 20260905154041 | 27 | 66 | 6.4 | 17.7 | 0.00 | 0.00 | 0.00 | 79 | 1010.9 |
| 20260905153541 | 27 | 36 | 6.4 | 12.9 | 0.00 | 0.00 | 0.00 | 80 | 1010.9 |
| 20260905153043 | 27 | 55 | 8.0 | 19.3 | 0.00 | 0.00 | 0.00 | 81 | 1010.9 |
| 20260905152537 | 27 | 28 | 9.7 | 19.3 | 0.00 | 0.00 | 0.00 | 81 | 1010.9 |
| 20260905152027 | 27 | 46 | 9.7 | 17.7 | 0.00 | 0.00 | 0.00 | 81 | 1010.9 |
| 20260905151744 | 27 | 40 | 9.7 | 19.3 | 0.00 | 0.00 | 0.00 | 81 | 1010.9 |
| 20260905151028 | 27 | 95 | 9.7 | 19.3 | 0.00 | 0.00 | 0.00 | 81 | 1010.7 |
| 20260905150527 | 27 | 70 | 9.7 | 19.3 | 0.00 | 0.00 | 0.00 | 80 | 1010.7 |
| 20260905150027 | 27 | 64 | 9.7 | 16.1 | 0.00 | 0.00 | 0.00 | 80 | 1010.7 |
| 20260905145526 | 28 | 21 | 6.4 | 16.1 | 0.00 | 0.00 | 0.00 | 80 | 1010.8 |
| 20260905145029 | 28 | 0 | 4.8 | 8.0 | 0.00 | 0.00 | 0.00 | 81 | 1010.8 |
| 20260905144528 | 27 | 42 | 6.4 | 12.9 | 0.00 | 0.00 | 0.00 | 83 | 1010.8 |
| 20260905144026 | 27 | 33 | 6.4 | 12.9 | 0.00 | 0.00 | 0.00 | 83 | 1010.4 |
| 20260905143524 | 27 | 86 | 4.8 | 11.3 | 0.00 | 0.00 | 0.00 | 83 | 1010.4 |
| 20260905143018 | 27 | 12 | 4.8 | 9.7 | 0.00 | 0.00 | 0.00 | 83 | 1010.4 |
| 20260905142513 | 26 | 47 | 4.8 | 12.9 | 0.00 | 0.00 | 0.00 | 84 | 1010.2 |
| 20260905142008 | 26 | 67 | 6.4 | 14.5 | 0.00 | 0.00 | 0.00 | 84 | 1010.2 |
| 20260905141457 | 26 | 84 | 4.8 | 14.5 | 0.00 | 0.00 | 0.00 | 84 | 1010.2 |
| 20260905140954 | 26 | 44 | 4.8 | 12.9 | 0.00 | 0.00 | 0.00 | 84 | 1010.2 |
| 20260905140444 | 26 | 338 | 4.8 | 12.9 | 0.00 | 0.00 | 0.00 | 84 | 1010.2 |
| 20260905135942 | 26 | 34 | 4.8 | 9.7 | 0.00 | 0.00 | 0.00 | 85 | 1010.5 |
| 20260905135700 | 26 | 41 | 6.4 | 12.9 | 0.00 | 0.00 | 0.00 | 85 | 1010.5 |
| 20260905134926 | 26 | 39 | 6.4 | 12.9 | 0.00 | 0.00 | 0.00 | 85 | 1010.5 |
| 20260905134424 | 26 | 67 | 6.4 | 12.9 | 0.00 | 0.00 | 0.00 | 85 | 1010.8 |
| 20260905133918 | 26 | 52 | 4.8 | 12.9 | 0.00 | 0.00 | 0.00 | 86 | 1010.8 |
| 20260905133412 | 26 | 81 | 4.8 | 12.9 | 0.00 | 0.00 | 0.00 | 86 | 1010.8 |
| 20260905132908 | 26 | 50 | 6.4 | 12.9 | 0.00 | 0.00 | 0.00 | 87 | 1010.3 |
| 20260905132357 | 26 | 56 | 6.4 | 14.5 | 0.00 | 0.00 | 0.00 | 87 | 1010.3 |
| 20260905132128 | 25 | 83 | 6.4 | 14.5 | 0.00 | 0.00 | 0.00 | 87 | 1010.3 |
| 20260905131604 | 25 | 80 | 4.8 | 11.3 | 0.00 | 0.00 | 0.00 | 87 | 1010.2 |
| 20260905130842 | 25 | 15 | 4.8 | 11.3 | 0.00 | 0.00 | 0.00 | 87 | 1010.2 |
| 20260905130601 | 25 | 50 | 4.8 | 11.3 | 0.00 | 0.00 | 0.00 | 88 | 1010.2 |
| 20260905125832 | 25 | 49 | 4.8 | 11.3 | 0.00 | 0.00 | 0.00 | 88 | 1009.9 |
| 20260905125550 | 26 | 34 | 4.8 | 9.7 | 0.00 | 0.00 | 0.00 | 89 | 1009.9 |
| 20260905124815 | 26 | 49 | 3.2 | 9.7 | 0.00 | 0.00 | 0.00 | 90 | 1009.9 |
| 20260905124314 | 26 | 11 | 3.2 | 6.4 | 0.00 | 0.00 | 0.00 | 90 | 1009.7 |
| 20260905123807 | 25 | 46 | 1.6 | 6.4 | 0.00 | 0.00 | 0.00 | 90 | 1009.7 |
| 20260905123300 | 25 | 22 | 1.6 | 6.4 | 0.00 | 0.00 | 0.00 | 90 | 1009.7 |
| 20260905122755 | 25 | 355 | 1.6 | 6.4 | 0.00 | 0.00 | 0.00 | 90 | 1009.4 |
| 20260905122243 | 25 | 355 | 1.6 | 4.8 | 0.00 | 0.00 | 0.00 | 90 | 1009.4 |
| 20260905121742 | 25 | 320 | 1.6 | 4.8 | 0.00 | 0.00 | 0.00 | 90 | 1009.4 |
| 20260905121236 | 25 | 340 | 0.0 | 4.8 | 0.00 | 0.00 | 0.00 | 91 | 1009.3 |
| 20260905120731 | 25 | 319 | 0.0 | 3.2 | 0.00 | 0.00 | 0.00 | 91 | 1009.3 |
| 20260905120225 | 25 | 284 | 0.0 | 3.2 | 0.00 | 0.00 | 0.00 | 91 | 1009.3 |
| 20260905115935 | 25 | 33 | 0.0 | 3.2 | 0.00 | 0.00 | 0.00 | 90 | 1009.2 |
| 20260905115436 | 25 | 38 | 0.0 | 3.2 | 0.00 | 0.00 | 0.00 | 90 | 1009.2 |
| 20260905114703 | 25 | 38 | 0.0 | 3.2 | 0.00 | 0.00 | 0.00 | 90 | 1009.2 |
| 20260905114424 | 25 | 38 | 1.6 | 4.8 | 0.00 | 0.00 | 0.00 | 90 | 1009.2 |
| 20260905113656 | 25 | 38 | 1.6 | 4.8 | 0.00 | 0.00 | 0.00 | 90 | 1009.2 |
| 20260905113148 | 25 | 273 | 0.0 | 3.2 | 0.00 | 0.00 | 0.00 | 90 | 1009.2 |
| 20260905112642 | 25 | 240 | 0.0 | 1.6 | 0.00 | 0.00 | 0.00 | 90 | 1009.1 |
| 20260905112400 | 25 | 240 | 1.6 | 4.8 | 0.00 | 0.00 | 0.00 | 90 | 1009.1 |
| 20260905111636 | 25 | 240 | 3.2 | 6.4 | 0.00 | 0.00 | 0.00 | 90 | 1009.1 |
| 20260905111410 | 25 | 217 | 3.2 | 6.4 | 0.00 | 0.00 | 0.00 | 90 | 1009.0 |
| 20260905110857 | 25 | 249 | 1.6 | 4.8 | 0.00 | 0.00 | 0.00 | 90 | 1009.0 |
| 20260905110135 | 25 | 238 | 1.6 | 4.8 | 0.00 | 0.00 | 0.00 | 90 | 1009.0 |
| 20260905105904 | 25 | 238 | 1.6 | 3.2 | 0.00 | 0.00 | 0.00 | 90 | 1009.1 |
| 20260905105135 | 25 | 238 | 1.6 | 6.4 | 0.00 | 0.00 | 0.00 | 90 | 1009.1 |
| 20260905104858 | 25 | 238 | 1.6 | 6.4 | 0.00 | 0.00 | 0.00 | 90 | 1009.1 |
| 20260905104137 | 25 | 238 | 1.6 | 4.8 | 0.00 | 0.00 | 0.00 | 90 | 1009.2 |
| 20260905104110 | 25 | 238 | 1.6 | 4.8 | 0.00 | 0.00 | 0.00 | 90 | 1009.2 |
| 20260905103119 | 25 | 240 | 1.6 | 3.2 | 0.00 | 0.00 | 0.00 | 90 | 1009.2 |
| 20260905102609 | 25 | 240 | 0.0 | 1.6 | 0.00 | 0.00 | 0.00 | 90 | 1009.2 |
| 20260905102105 | 25 | 240 | 0.0 | 0.0 | 0.00 | 0.00 | 0.00 | 90 | 1009.2 |
| 20260905101558 | 25 | 240 | 0.0 | 0.0 | 0.00 | 0.00 | 0.00 | 90 | 1009.2 |
| 20260905101052 | 25 | 240 | 0.0 | 0.0 | 0.00 | 0.00 | 0.00 | 90 | 1009.2 |
| 20260905100542 | 25 | 240 | 0.0 | 0.0 | 0.00 | 0.00 | 0.00 | 90 | 1009.2 |
| 20260905100039 | 25 | 240 | 0.0 | 1.6 | 0.00 | 0.00 | 0.00 | 90 | 1009.2 |
| 20260905095534 | 25 | 240 | 0.0 | 1.6 | 0.00 | 0.00 | 0.00 | 89 | 1009.1 |
| 20260905095250 | 25 | 240 | 0.0 | 3.2 | 0.00 | 0.00 | 0.00 | 89 | 1009.1 |
| 20260905094522 | 25 | 240 | 1.6 | 3.2 | 0.00 | 0.00 | 0.00 | 89 | 1009.1 |
| 20260905094015 | 25 | 240 | 1.6 | 3.2 | 0.00 | 0.00 | 0.00 | 89 | 1009.1 |
| 20260905093729 | 25 | 240 | 1.6 | 3.2 | 0.00 | 0.00 | 0.00 | 89 | 1009.1 |
| 20260905093000 | 26 | 240 | 1.6 | 3.2 | 0.00 | 0.00 | 0.00 | 89 | 1009.1 |
| 20260905092457 | 26 | 240 | 3.2 | 4.8 | 0.00 | 0.00 | 0.00 | 89 | 1009.1 |
| 20260905091952 | 26 | 240 | 3.2 | 4.8 | 0.00 | 0.00 | 0.00 | 89 | 1009.1 |
| 20260905091710 | 26 | 233 | 1.6 | 3.2 | 0.00 | 0.00 | 0.00 | 89 | 1009.1 |
| 20260905090941 | 26 | 233 | 1.6 | 3.2 | 0.00 | 0.00 | 0.00 | 89 | 1009.1 |
| 20260905090429 | 26 | 233 | 0.0 | 3.2 | 0.00 | 0.00 | 0.00 | 89 | 1009.1 |
| 20260905090156 | 26 | 233 | 1.6 | 3.2 | 0.00 | 0.00 | 0.00 | 89 | 1009.1 |
| 20260905085423 | 26 | 233 | 1.6 | 4.8 | 0.00 | 0.00 | 0.00 | 89 | 1009.1 |
| 20260905084915 | 26 | 233 | 1.6 | 4.8 | 0.00 | 0.00 | 0.00 | 89 | 1009.1 |
| 20260905084636 | 26 | 230 | 0.0 | 1.6 | 0.00 | 0.00 | 0.00 | 89 | 1009.1 |
| 20260905083859 | 26 | 248 | 0.0 | 0.0 | 0.00 | 0.00 | 0.00 | 89 | 1009.1 |
| 20260905083357 | 26 | 248 | 0.0 | 0.0 | 0.00 | 0.00 | 0.00 | 89 | 1009.1 |
| 20260905083111 | 26 | 319 | 0.0 | 0.0 | 0.00 | 0.00 | 0.00 | 89 | 1009.2 |
| 20260905082345 | 26 | 319 | 0.0 | 0.0 | 0.00 | 0.00 | 0.00 | 89 | 1009.2 |
| 20260905081840 | 26 | 321 | 0.0 | 0.0 | 0.00 | 0.00 | 0.00 | 89 | 1009.2 |
| 20260905081333 | 26 | 275 | 0.0 | 0.0 | 0.00 | 0.00 | 0.00 | 89 | 1009.2 |
| 20260905080828 | 26 | 275 | 0.0 | 0.0 | 0.00 | 0.00 | 0.00 | 89 | 1009.2 |
| 20260905080542 | 26 | 257 | 0.0 | 0.0 | 0.00 | 0.00 | 0.00 | 89 | 1009.2 |
| 20260905075815 | 26 | 304 | 0.0 | 0.0 | 0.00 | 0.00 | 0.00 | 89 | 1009.1 |
| 20260905075311 | 26 | 233 | 0.0 | 0.0 | 0.00 | 0.00 | 0.00 | 89 | 1009.1 |
| 20260905074803 | 26 | 233 | 0.0 | 0.0 | 0.00 | 0.00 | 0.00 | 88 | 1009.1 |
| 20260905074258 | 26 | 233 | 0.0 | 0.0 | 0.00 | 0.00 | 0.00 | 88 | 1009.0 |
| 20260905073748 | 26 | 233 | 0.0 | 0.0 | 0.00 | 0.00 | 0.00 | 88 | 1009.0 |
| 20260905073245 | 26 | 233 | 0.0 | 0.0 | 0.00 | 0.00 | 0.00 | 88 | 1009.0 |
| 20260905072740 | 26 | 233 | 0.0 | 0.0 | 0.00 | 0.00 | 0.00 | 88 | 1009.0 |
| 20260905072233 | 26 | 233 | 0.0 | 0.0 | 0.00 | 0.00 | 0.00 | 88 | 1009.0 |
| 20260905071728 | 26 | 233 | 0.0 | 0.0 | 0.00 | 0.00 | 0.00 | 88 | 1009.0 |
| 20260905071220 | 26 | 233 | 0.0 | 0.0 | 0.00 | 0.00 | 0.00 | 88 | 1009.2 |
| 20260905070935 | 26 | 233 | 0.0 | 0.0 | 0.00 | 0.00 | 0.00 | 88 | 1009.2 |
| 20260905070208 | 26 | 233 | 0.0 | 0.0 | 0.00 | 0.00 | 0.00 | 87 | 1009.2 |
| 20260905065700 | 26 | 233 | 0.0 | 0.0 | 0.00 | 0.00 | 0.00 | 87 | 1009.2 |
| 20260905065146 | 26 | 233 | 0.0 | 3.2 | 0.00 | 0.00 | 0.00 | 87 | 1009.2 |
| 20260905064642 | 26 | 233 | 0.0 | 3.2 | 0.00 | 0.00 | 0.00 | 87 | 1009.2 |
| 20260905064140 | 26 | 233 | 1.6 | 4.8 | 0.00 | 0.00 | 0.00 | 87 | 1009.2 |
| 20260905063644 | 26 | 233 | 3.2 | 6.4 | 0.00 | 0.00 | 0.00 | 87 | 1009.2 |
| 20260905063141 | 26 | 229 | 3.2 | 6.4 | 0.00 | 0.00 | 0.00 | 87 | 1009.2 |
| 20260905062642 | 26 | 223 | 3.2 | 6.4 | 0.00 | 0.00 | 0.00 | 87 | 1009.2 |
| 20260905062138 | 26 | 219 | 1.6 | 4.8 | 0.00 | 0.00 | 0.00 | 87 | 1009.2 |
| 20260905061639 | 26 | 219 | 1.6 | 4.8 | 0.00 | 0.00 | 0.00 | 87 | 1009.2 |
| 20260905061138 | 26 | 219 | 3.2 | 4.8 | 0.00 | 0.00 | 0.00 | 87 | 1009.3 |
| 20260905060642 | 26 | 234 | 3.2 | 4.8 | 0.00 | 0.00 | 0.00 | 87 | 1009.3 |
| 20260905060140 | 26 | 231 | 3.2 | 4.8 | 0.00 | 0.00 | 0.00 | 87 | 1009.3 |
| 20260905055634 | 26 | 229 | 3.2 | 6.4 | 0.00 | 0.00 | 0.00 | 87 | 1009.6 |
| 20260905055607 | 26 | 218 | 3.2 | 6.4 | 0.00 | 0.00 | 0.00 | 87 | 1009.6 |
| 20260905054622 | 26 | 241 | 1.6 | 6.4 | 0.00 | 0.00 | 0.00 | 86 | 1009.6 |
| 20260905054115 | 26 | 221 | 1.6 | 4.8 | 0.00 | 0.00 | 0.00 | 86 | 1009.7 |
| 20260905053610 | 26 | 221 | 1.6 | 6.4 | 0.00 | 0.00 | 0.00 | 86 | 1009.7 |
| 20260905053103 | 26 | 217 | 1.6 | 6.4 | 0.00 | 0.00 | 0.00 | 85 | 1009.7 |
| 20260905052557 | 26 | 221 | 0.0 | 4.8 | 0.00 | 0.00 | 0.00 | 85 | 1009.6 |
| 20260905052309 | 26 | 221 | 3.2 | 6.4 | 0.00 | 0.00 | 0.00 | 85 | 1009.6 |
| 20260905052033 | 27 | 228 | 3.2 | 6.4 | 0.00 | 0.00 | 0.00 | 85 | 1009.6 |
| 20260905051040 | 27 | 215 | 4.8 | 8.0 | 0.00 | 0.00 | 0.00 | 85 | 1009.2 |
| 20260905050534 | 27 | 236 | 4.8 | 9.7 | 0.00 | 0.00 | 0.00 | 84 | 1009.2 |
| 20260905050024 | 27 | 226 | 3.2 | 9.7 | 0.00 | 0.00 | 0.00 | 84 | 1009.2 |
| 20260905045523 | 27 | 211 | 1.6 | 8.0 | 0.00 | 0.00 | 0.00 | 84 | 1009.5 |
| 20260905045017 | 27 | 232 | 1.6 | 4.8 | 0.00 | 0.00 | 0.00 | 83 | 1009.5 |
| 20260905044513 | 27 | 232 | 1.6 | 4.8 | 0.00 | 0.00 | 0.00 | 83 | 1009.5 |
| 20260905044006 | 27 | 231 | 1.6 | 4.8 | 0.00 | 0.00 | 0.00 | 82 | 1009.7 |
| 20260905043456 | 27 | 239 | 1.6 | 3.2 | 0.00 | 0.00 | 0.00 | 82 | 1009.7 |
| 20260905043212 | 28 | 240 | 3.2 | 8.0 | 0.00 | 0.00 | 0.00 | 81 | 1009.6 |
| 20260905042448 | 28 | 240 | 3.2 | 8.0 | 0.00 | 0.00 | 0.00 | 81 | 1009.6 |
| 20260905041943 | 28 | 229 | 3.2 | 6.4 | 0.00 | 0.00 | 0.00 | 81 | 1009.6 |
| 20260905041436 | 28 | 226 | 3.2 | 6.4 | 0.00 | 0.00 | 0.00 | 80 | 1009.7 |
| 20260905040925 | 28 | 224 | 3.2 | 6.4 | 0.00 | 0.00 | 0.00 | 80 | 1009.7 |
| 20260905040423 | 28 | 231 | 3.2 | 6.4 | 0.00 | 0.00 | 0.00 | 80 | 1009.7 |
| 20260905035918 | 28 | 225 | 1.6 | 6.4 | 0.00 | 0.00 | 0.00 | 80 | 1009.8 |
| 20260905035411 | 28 | 231 | 0.0 | 6.4 | 0.00 | 0.00 | 0.00 | 79 | 1009.8 |
| 20260905034906 | 28 | 228 | 0.0 | 0.0 | 0.00 | 0.00 | 0.00 | 79 | 1009.8 |
| 20260905034352 | 28 | 228 | 0.0 | 0.0 | 0.00 | 0.00 | 0.00 | 78 | 1010.1 |
| 20260905033847 | 28 | 228 | 0.0 | 0.0 | 0.00 | 0.00 | 0.00 | 78 | 1010.1 |
| 20260905033348 | 28 | 228 | 0.0 | 0.0 | 0.00 | 0.00 | 0.00 | 78 | 1010.1 |
| 20260905032842 | 28 | 228 | 0.0 | 0.0 | 0.00 | 0.00 | 0.00 | 78 | 1010.2 |
| 20260905032552 | 28 | 228 | 0.0 | 0.0 | 0.00 | 0.00 | 0.00 | 79 | 1010.2 |
| 20260905031830 | 28 | 228 | 0.0 | 0.0 | 0.00 | 0.00 | 0.00 | 79 | 1010.2 |
| 20260905031543 | 28 | 228 | 0.0 | 0.0 | 0.00 | 0.00 | 0.00 | 80 | 1010.1 |
| 20260905030809 | 28 | 228 | 0.0 | 0.0 | 0.00 | 0.00 | 0.00 | 80 | 1010.1 |
| 20260905030311 | 28 | 228 | 0.0 | 0.0 | 0.00 | 0.00 | 0.00 | 80 | 1010.1 |
| 20260905025806 | 28 | 228 | 0.0 | 0.0 | 0.00 | 0.00 | 0.00 | 80 | 1009.8 |
| 20260905025258 | 28 | 228 | 0.0 | 0.0 | 0.00 | 0.00 | 0.00 | 80 | 1009.8 |
| 20260905024754 | 28 | 227 | 0.0 | 0.0 | 0.00 | 0.00 | 0.00 | 80 | 1009.8 |
| 20260905024241 | 28 | 227 | 0.0 | 0.0 | 0.00 | 0.00 | 0.00 | 80 | 1009.8 |
| 20260905023740 | 28 | 227 | 0.0 | 0.0 | 0.00 | 0.00 | 0.00 | 80 | 1009.8 |
| 20260905023236 | 28 | 227 | 0.0 | 0.0 | 0.00 | 0.00 | 0.00 | 80 | 1009.8 |
| 20260905022953 | 28 | 227 | 0.0 | 0.0 | 0.00 | 0.00 | 0.00 | 80 | 1009.7 |
| 20260905022223 | 28 | 227 | 0.0 | 0.0 | 0.00 | 0.00 | 0.00 | 79 | 1009.7 |
| 20260905021938 | 28 | 227 | 0.0 | 0.0 | 0.00 | 0.00 | 0.00 | 79 | 1009.7 |
| 20260905021210 | 28 | 227 | 0.0 | 0.0 | 0.00 | 0.00 | 0.00 | 79 | 1009.7 |
| 20260905020922 | 28 | 227 | 0.0 | 0.0 | 0.00 | 0.00 | 0.00 | 78 | 1009.7 |
| 20260905020159 | 29 | 227 | 0.0 | 0.0 | 0.00 | 0.00 | 0.00 | 79 | 1009.7 |
| 20260905015654 | 29 | 227 | 0.0 | 0.0 | 0.00 | 0.00 | 0.00 | 78 | 1009.7 |
| 20260905015146 | 29 | 227 | 0.0 | 0.0 | 0.00 | 0.00 | 0.00 | 78 | 1009.7 |
| 20260905014854 | 29 | 227 | 0.0 | 0.0 | 0.00 | 0.00 | 0.00 | 79 | 1009.7 |
| 20260905014124 | 29 | 227 | 0.0 | 0.0 | 0.00 | 0.00 | 0.00 | 78 | 1009.3 |
| 20260905013627 | 29 | 227 | 0.0 | 0.0 | 0.00 | 0.00 | 0.00 | 78 | 1009.3 |
| 20260905013124 | 29 | 227 | 0.0 | 0.0 | 0.00 | 0.00 | 0.00 | 78 | 1009.3 |
| 20260905012625 | 29 | 227 | 0.0 | 0.0 | 0.00 | 0.00 | 0.00 | 78 | 1009.2 |
| 20260905012123 | 29 | 227 | 0.0 | 0.0 | 0.00 | 0.00 | 0.00 | 78 | 1009.2 |
| 20260905011850 | 29 | 227 | 0.0 | 0.0 | 0.00 | 0.00 | 0.00 | 78 | 1009.2 |
| 20260905011620 | 29 | 227 | 0.0 | 0.0 | 0.00 | 0.00 | 0.00 | 77 | 1008.7 |
| 20260905010625 | 30 | 227 | 0.0 | 0.0 | 0.00 | 0.00 | 0.00 | 77 | 1008.7 |
| 20260905010123 | 30 | 227 | 0.0 | 0.0 | 0.00 | 0.00 | 0.00 | 77 | 1008.7 |
| 20260905005619 | 30 | 227 | 0.0 | 0.0 | 0.00 | 0.00 | 0.00 | 77 | 1008.7 |
| 20260905005111 | 30 | 227 | 0.0 | 0.0 | 0.00 | 0.00 | 0.00 | 76 | 1008.7 |
| 20260905004606 | 30 | 227 | 0.0 | 0.0 | 0.00 | 0.00 | 0.00 | 76 | 1008.7 |
| 20260905004100 | 30 | 227 | 0.0 | 0.0 | 0.00 | 0.00 | 0.00 | 75 | 1009.0 |
| 20260905003553 | 30 | 226 | 0.0 | 0.0 | 0.00 | 0.00 | 0.00 | 75 | 1009.0 |
| 20260905003308 | 30 | 229 | 0.0 | 0.0 | 0.00 | 0.00 | 0.00 | 74 | 1009.0 |
| 20260905002537 | 31 | 217 | 0.0 | 0.0 | 0.00 | 0.00 | 0.00 | 73 | 1009.0 |
| 20260905002035 | 31 | 229 | 0.0 | 0.0 | 0.00 | 0.00 | 0.00 | 73 | 1009.0 |
| 20260905001757 | 31 | 229 | 0.0 | 0.0 | 0.00 | 0.00 | 0.00 | 73 | 1009.0 |
| 20260905001024 | 31 | 224 | 0.0 | 0.0 | 0.00 | 0.00 | 0.00 | 72 | 1009.0 |
| 20260905000517 | 31 | 225 | 1.6 | 6.4 | 0.00 | 0.00 | 0.00 | 72 | 1009.0 |
| 20260905000011 | 31 | 231 | 3.2 | 8.0 | 0.00 | 0.00 | 0.00 | 71 | 1009.0 |
| 20260904235506 | 31 | 231 | 3.2 | 8.0 | 0.00 | 0.00 | 0.00 | 71 | 1009.1 |
| 20260904235000 | 32 | 244 | 3.2 | 11.3 | 0.00 | 0.00 | 0.00 | 71 | 1009.1 |
| 20260904234455 | 32 | 232 | 1.6 | 11.3 | 0.00 | 0.00 | 0.00 | 70 | 1009.1 |
| 20260904233949 | 32 | 240 | 0.0 | 9.7 | 0.00 | 0.00 | 0.00 | 70 | 1009.1 |
| 20260904233700 | 32 | 243 | 3.2 | 12.9 | 0.00 | 0.00 | 0.00 | 70 | 1009.1 |
| 20260904232937 | 32 | 245 | 4.8 | 12.9 | 0.00 | 0.00 | 0.00 | 69 | 1009.1 |
| 20260904232425 | 32 | 213 | 6.4 | 12.9 | 0.00 | 0.00 | 0.00 | 69 | 1009.1 |
| 20260904232153 | 32 | 237 | 6.4 | 12.9 | 0.00 | 0.00 | 0.00 | 69 | 1009.1 |
| 20260904231417 | 32 | 262 | 3.2 | 12.9 | 0.00 | 0.00 | 0.00 | 68 | 1009.2 |
| 20260904230911 | 32 | 235 | 3.2 | 9.7 | 0.00 | 0.00 | 0.00 | 69 | 1009.2 |
| 20260904230630 | 32 | 256 | 4.8 | 11.3 | 0.00 | 0.00 | 0.00 | 69 | 1009.2 |
| 20260904225857 | 32 | 188 | 6.4 | 12.9 | 0.00 | 0.00 | 0.00 | 69 | 1009.1 |
| 20260904225355 | 32 | 254 | 6.4 | 12.9 | 0.00 | 0.00 | 0.00 | 69 | 1009.1 |
| 20260904224850 | 32 | 225 | 6.4 | 12.9 | 0.00 | 0.00 | 0.00 | 68 | 1009.1 |
| 20260904224341 | 32 | 238 | 6.4 | 14.5 | 0.00 | 0.00 | 0.00 | 68 | 1009.1 |
| 20260904223836 | 33 | 231 | 6.4 | 14.5 | 0.00 | 0.00 | 0.00 | 67 | 1009.1 |
| 20260904223329 | 33 | 244 | 8.0 | 14.5 | 0.00 | 0.00 | 0.00 | 68 | 1009.1 |
| 20260904222824 | 33 | 238 | 6.4 | 14.5 | 0.00 | 0.00 | 0.00 | 67 | 1008.9 |
| 20260904222325 | 33 | 222 | 6.4 | 16.1 | 0.00 | 0.00 | 0.00 | 67 | 1008.9 |
| 20260904221825 | 33 | 223 | 6.4 | 16.1 | 0.00 | 0.00 | 0.00 | 68 | 1008.9 |
| 20260904221324 | 32 | 238 | 6.4 | 16.1 | 0.00 | 0.00 | 0.00 | 67 | 1009.0 |
| 20260904220825 | 33 | 215 | 6.4 | 16.1 | 0.00 | 0.00 | 0.00 | 66 | 1009.0 |
| 20260904220326 | 33 | 207 | 6.4 | 14.5 | 0.00 | 0.00 | 0.00 | 65 | 1009.0 |
| 20260904215824 | 33 | 224 | 9.7 | 20.9 | 0.00 | 0.00 | 0.00 | 65 | 1008.8 |
| 20260904215325 | 33 | 233 | 9.7 | 20.9 | 0.00 | 0.00 | 0.00 | 64 | 1008.8 |
| 20260904215052 | 33 | 257 | 8.0 | 19.3 | 0.00 | 0.00 | 0.00 | 64 | 1008.8 |
| 20260904214325 | 33 | 231 | 6.4 | 19.3 | 0.00 | 0.00 | 0.00 | 64 | 1008.8 |
| 20260904213825 | 33 | 182 | 6.4 | 16.1 | 0.00 | 0.00 | 0.00 | 65 | 1008.8 |
| 20260904213328 | 33 | 220 | 6.4 | 16.1 | 0.00 | 0.00 | 0.00 | 64 | 1008.8 |
| 20260904213053 | 33 | 235 | 6.4 | 12.9 | 0.00 | 0.00 | 0.00 | 64 | 1009.0 |
| 20260904212325 | 33 | 196 | 6.4 | 14.5 | 0.00 | 0.00 | 0.00 | 64 | 1009.0 |
| 20260904211825 | 33 | 214 | 6.4 | 17.7 | 0.00 | 0.00 | 0.00 | 65 | 1009.0 |
| 20260904211326 | 33 | 254 | 4.8 | 17.7 | 0.00 | 0.00 | 0.00 | 64 | 1009.2 |
| 20260904210824 | 33 | 138 | 6.4 | 17.7 | 0.00 | 0.00 | 0.00 | 65 | 1009.2 |
| 20260904210806 | 33 | 199 | 6.4 | 17.7 | 0.00 | 0.00 | 0.00 | 65 | 1009.2 |
| 20260904205825 | 33 | 196 | 6.4 | 16.1 | 0.00 | 0.00 | 0.00 | 65 | 1009.5 |
| 20260904205324 | 33 | 229 | 6.4 | 16.1 | 0.00 | 0.00 | 0.00 | 65 | 1009.5 |
| 20260904204824 | 33 | 218 | 6.4 | 16.1 | 0.00 | 0.00 | 0.00 | 65 | 1009.5 |
| 20260904204322 | 33 | 217 | 6.4 | 19.3 | 0.00 | 0.00 | 0.00 | 65 | 1009.5 |
| 20260904203821 | 33 | 219 | 6.4 | 19.3 | 0.00 | 0.00 | 0.00 | 65 | 1009.5 |
| 20260904203316 | 33 | 192 | 6.4 | 16.1 | 0.00 | 0.00 | 0.00 | 65 | 1009.5 |
| 20260904202810 | 33 | 209 | 6.4 | 16.1 | 0.00 | 0.00 | 0.00 | 66 | 1009.7 |
| 20260904202306 | 33 | 182 | 6.4 | 11.3 | 0.00 | 0.00 | 0.00 | 65 | 1009.7 |
| 20260904201755 | 33 | 186 | 4.8 | 11.3 | 0.00 | 0.00 | 0.00 | 66 | 1009.7 |
| 20260904201250 | 33 | 188 | 4.8 | 14.5 | 0.00 | 0.00 | 0.00 | 66 | 1009.8 |
| 20260904201226 | 33 | 234 | 3.2 | 14.5 | 0.00 | 0.00 | 0.00 | 65 | 1009.8 |
| 20260904200507 | 33 | 227 | 4.8 | 16.1 | 0.00 | 0.00 | 0.00 | 66 | 1009.8 |
| 20260904195733 | 33 | 152 | 3.2 | 16.1 | 0.00 | 0.00 | 0.00 | 66 | 1010.0 |
| 20260904195222 | 33 | 217 | 3.2 | 14.5 | 0.00 | 0.00 | 0.00 | 65 | 1010.0 |
| 20260904194720 | 33 | 181 | 1.6 | 14.5 | 0.00 | 0.00 | 0.00 | 65 | 1010.0 |
| 20260904194216 | 33 | 246 | 1.6 | 12.9 | 0.00 | 0.00 | 0.00 | 65 | 1010.3 |